DECAYED

CZ-6A DEB, 61298 (Decayed)

Orbit data source: Space-Track

CZ-6A DEB, 61298 was space debris in LEO originally from a launch on Tue, 06 Aug 2024 UTC launched from the Taiyaun Space Center, China (TSC). Debris objects in space refer to the collection of defunct objects orbiting the Earth. Examples of debris include non-operational satellites, rocket bodies, and fragments generated from explosions, collisions, or faulty payload assembly.

Not visible in the next 10 days
Identifier
61298, 2024-140TK
Orbit
Decayed
Country
Flag of CNCN / PRC
Related business
Manufacturer
SAST
Mission
Decayed spacecraft
Bus & Motor
Unknown
Mass
Unknown
Launch date (UTC)
2024-08-06 (2 years ago)
Launch vehicle
Unknown
Launch site
Taiyaun Space Center, China (TSC)
Object type
Payload
Rocket body
Debris
Shape & HBR
Unknown shape, 0.1 m
Radar Cross Section
Medium (>0.1 m² and <1 m²)

Expand to show TLE details & history
Last TLE update: 10 months ago

TLE from 10 months ago
0 CZ-6A DEB
1 61298U 24140TK  25237.74739961  .00000000  20000-1  24161-1 0  9990
2 61298  89.3198 320.7931 0016237 317.1079  42.8946 16.08471165 54133
Epoch: 2025-08-25T17:56Z
TLE epoch observation values (Epoch: 2025-08-25T17:56:15.326Z)
Latitude
-0.0001°
Longitude
77.48022°
Altitude
246.48 km
Speed
7.763 km/s
True Right ascension
21h 23m 10s
True Declination
0° 00' 00"
Sunlit
Object was in full shadow at epoch
Visualization orbit readout
Latitude
Unknown
Longitude
Unknown
Altitude
Unknown
Speed
Unknown
Apparent Right ascension
Unknown
Apparent Declination
Unknown
Sunlit
N/A
Visualization observer readout
Local Sidereal Time
07:24:09
Azimuth
Unknown
Elevation
Unknown
Doppler factor
Unknown
Orbital elements
Apogee altitude
258.484 km
Perigee altitude
236.967 km
Semi-major axis
6,625.863 km
Eccentricity
0.00162
Inclination
89.3198°
RAAN
320.7931°
Arg. of periapsis
317.1079°
True anomaly
43.02143°
Mean anomaly
42.8946°
Eccentric anomaly
42.958°
Mean motion
4.0242 °/min
Orbital period
89.46 mins
BSTAR
0.024161
Loading maneuver chart data...
Computing Atmospheric mass density...
Loading historical data...
Loading historical data...
Loading historical data...
Loading historical data...
Loading historical data...
Loading historical data...
Loading historical data...

Documentation

Showing up to 5 results
|